Flag for Germany Weather past 2 weeks in Starnberg, Bavaria, Germany

48 °F

Partly cloudy.

Feels Like: 42 °F
Forecast: 44 / 48 °F
Wind: 18 mph from Southwest

Location: Oberpfaffenhofen

Current Time: Nov 30, 2015 at 7:00:09 PM

Latest Report: Nov 30, 2015 at 6:20 PM

Visibility: N/A

Pressure: 30.18 "Hg (28.10 "Hg at 590m altitude)

Humidity: 66%

Dew point: 37 °F

Location of StarnbergLocation

Historic Weather in Starnberg — Graph


Starnberg temperature yesterday

Maximum temperature yesterday: 45 °F (at 5:50 PM)
Minimum temperature yesterday: 45 °F (at 5:50 PM)
Average temperature yesterday: 45 °F

Past Weeks' High & Low Weather Summary

High66 °F (Nov 16, 1:20 PM)100% (Nov 20, 2:50 PM)30.27 "Hg (Nov 20, 2:50 PM)
Low19 °F (Nov 24, 6:50 AM)43% (Nov 16, 1:20 PM)29.42 "Hg (Nov 21, 3:50 PM)
Average43 °F79%29.99 "Hg
* Reported Nov 16 7:50 AM — Nov 30 5:50 PM, Starnberg, Weather by CustomWeather, © 2015

Note: Actual official high and low records may vary slightly from our data, if they occured in-between our weather recording intervals... More about our weather records


Starnberg weather history for previous 24 hours

Time TempWeatherWind HumidityBarometerVisibility
5:50 PM
Mon, Nov 30
48 °FPassing clouds.20 mph66%30.18 "HgN/A
5:20 PM48 °FPartly cloudy.25 mph66%30.18 "HgN/A
4:50 PM48 °FPassing clouds.22 mph71%30.18 "HgN/A
4:20 PM48 °FBroken clouds.24 mph71%30.21 "HgN/A
3:50 PM48 °FBroken clouds.23 mph66%30.21 "HgN/A
3:20 PM48 °FBroken clouds.23 mph66%30.21 "HgN/A
2:50 PM48 °FBroken clouds.23 mph66%30.21 "HgN/A
2:20 PM48 °FBroken clouds.25 mph71%30.21 "HgN/A
1:50 PM48 °FSprinkles. Partly sunny.24 mph71%30.21 "HgN/A
1:20 PM48 °FBroken clouds.25 mph71%30.24 "HgN/A
12:50 PM48 °FBroken clouds.22 mph71%30.24 "HgN/A
12:20 PM46 °FLight rain. Broken clouds.22 mph82%30.24 "HgN/A
11:50 AM46 °FLight rain. Broken clouds.21 mph82%30.24 "HgN/A
11:20 AM46 °FLight rain. Broken clouds.25 mph82%30.24 "HgN/A
10:50 AM46 °FLight rain. Broken clouds.25 mph82%30.27 "HgN/A
10:20 AM46 °FLight rain. Broken clouds.29 mph76%30.24 "HgN/A
9:50 AM46 °FLight rain. Broken clouds.24 mph76%30.24 "HgN/A
9:20 AM46 °FLight rain. Broken clouds.25 mph76%30.24 "HgN/A
8:50 AM46 °FLight rain. Broken clouds.28 mph76%30.21 "HgN/A
7:50 AM46 °FBroken clouds.25 mph71%30.18 "HgN/A
7:20 AM46 °FLight rain. Partly cloudy.25 mph71%30.18 "HgN/A
6:50 AM46 °FLight rain. Partly cloudy.28 mph71%30.18 "HgN/A
Weather by CustomWeather, © 2015

See weather overviewHow to use our weather pages